| time (UTC) | temp F | wind direction | speed MPH | gust MPH | rain 1hr in | rain 24hr in | rain mn in | humidity % | barometer mb |
| 20260504224512 | 55 | 328 | 5.0 | 15.0 | 0.00 | 0.00 | 0.00 | 29 | 1016.2 |
| 20260504223013 | 55 | 323 | 5.0 | 10.0 | 0.00 | 0.00 | 0.00 | 30 | 1016.3 |
| 20260504221509 | 54 | 332 | 6.0 | 11.0 | 0.00 | 0.00 | 0.00 | 32 | 1016.5 |
| 20260504220008 | 55 | 30 | 5.0 | 10.0 | 0.00 | 0.00 | 0.00 | 32 | 1016.4 |
| 20260504214510 | 54 | 335 | 6.0 | 13.0 | 0.00 | 0.00 | 0.00 | 33 | 1016.3 |
| 20260504213012 | 54 | 32 | 5.0 | 13.0 | 0.00 | 0.00 | 0.00 | 32 | 1016.4 |
| 20260504211511 | 54 | 40 | 5.0 | 15.0 | 0.00 | 0.00 | 0.00 | 31 | 1016.5 |
| 20260504210018 | 54 | 357 | 7.0 | 17.0 | 0.00 | 0.00 | 0.00 | 30 | 1016.4 |
| 20260504204512 | 55 | 337 | 7.0 | 17.0 | 0.00 | 0.00 | 0.00 | 28 | 1016.5 |
| 20260504203012 | 55 | 315 | 9.0 | 19.0 | 0.00 | 0.00 | 0.00 | 29 | 1016.4 |
| 20260504201511 | 56 | 340 | 7.0 | 17.0 | 0.00 | 0.00 | 0.00 | 29 | 1016.3 |
| 20260504200008 | 55 | 343 | 9.0 | 16.0 | 0.00 | 0.00 | 0.00 | 30 | 1016.2 |
| 20260504194517 | 56 | 359 | 9.0 | 17.0 | 0.00 | 0.00 | 0.00 | 29 | 1016.2 |
| 20260504193017 | 55 | 313 | 7.0 | 16.0 | 0.00 | 0.00 | 0.00 | 31 | 1016.2 |
| 20260504191519 | 54 | 310 | 10.0 | 18.0 | 0.00 | 0.00 | 0.00 | 32 | 1016.4 |
| 20260504190023 | 55 | 43 | 6.0 | 15.0 | 0.00 | 0.00 | 0.00 | 31 | 1016.4 |
| 20260504184510 | 55 | 343 | 6.0 | 17.0 | 0.00 | 0.00 | 0.00 | 32 | 1016.4 |
| 20260504183018 | 56 | 34 | 5.0 | 17.0 | 0.00 | 0.00 | 0.00 | 32 | 1016.5 |
| 20260504181516 | 55 | 332 | 9.0 | 22.0 | 0.00 | 0.00 | 0.00 | 32 | 1016.5 |
| 20260504180018 | 55 | 314 | 8.0 | 16.0 | 0.00 | 0.00 | 0.00 | 34 | 1016.6 |
| 20260504174520 | 54 | 329 | 6.0 | 15.0 | 0.00 | 0.00 | 0.00 | 35 | 1016.8 |
| 20260504173018 | 54 | 329 | 8.0 | 16.0 | 0.00 | 0.00 | 0.00 | 36 | 1016.6 |
| 20260504171530 | 53 | 295 | 8.0 | 14.0 | 0.00 | 0.00 | 0.00 | 38 | 1016.7 |
| 20260504081527 | 49 | 51 | 7.0 | 16.0 | 0.00 | 0.00 | 0.00 | 48 | 1016.6 |
| 20260504050006 | 56 | 65 | 11.0 | 14.0 | 0.00 | 0.00 | 0.00 | 37 | 1011.3 |
| 20260504044513 | 57 | 46 | 2.0 | 4.0 | 0.00 | 0.00 | 0.00 | 35 | 1010.8 |
| 20260504043016 | 57 | 46 | 1.0 | 2.0 | 0.00 | 0.00 | 0.00 | 36 | 1010.4 |
| 20260504041521 | 58 | 46 | 1.0 | 5.0 | 0.00 | 0.00 | 0.00 | 35 | 1010.2 |
| 20260504040003 | 58 | 61 | 5.0 | 7.0 | 0.00 | 0.00 | 0.00 | 35 | 1009.9 |
| 20260504034504 | 60 | 68 | 5.0 | 9.0 | 0.00 | 0.00 | 0.00 | 34 | 1009.6 |
| 20260504033014 | 61 | 67 | 10.0 | 18.0 | 0.00 | 0.00 | 0.00 | 32 | 1009.2 |
| 20260504031516 | 62 | 56 | 9.0 | 12.0 | 0.00 | 0.01 | 0.00 | 27 | 1008.8 |
| 20260504030019 | 64 | 41 | 3.0 | 6.0 | 0.00 | 0.01 | 0.00 | 23 | 1008.2 |
| 20260504024504 | 64 | 61 | 2.0 | 4.0 | 0.00 | 0.01 | 0.00 | 22 | 1007.8 |
| 20260504023008 | 66 | 53 | 2.0 | 4.0 | 0.00 | 0.01 | 0.00 | 22 | 1007.9 |
| 20260504021515 | 68 | 56 | 3.0 | 6.0 | 0.00 | 0.01 | 0.00 | 21 | 1007.9 |
| 20260504020019 | 69 | 55 | 4.0 | 7.0 | 0.00 | 0.01 | 0.00 | 20 | 1008.0 |
| 20260504014531 | 71 | 36 | 5.0 | 9.0 | 0.00 | 0.01 | 0.00 | 19 | 1008.0 |
| 20260504013006 | 72 | 44 | 3.0 | 9.0 | 0.00 | 0.01 | 0.00 | 19 | 1007.9 |
| 20260504011519 | 73 | 20 | 4.0 | 9.0 | 0.00 | 0.01 | 0.00 | 18 | 1008.0 |
| 20260504010016 | 74 | 32 | 3.0 | 8.0 | 0.00 | 0.01 | 0.00 | 18 | 1008.0 |
| 20260504004524 | 74 | 11 | 5.0 | 9.0 | 0.00 | 0.01 | 0.00 | 17 | 1008.1 |
| 20260504003006 | 75 | 47 | 6.0 | 10.0 | 0.00 | 0.01 | 0.00 | 17 | 1008.3 |
| 20260504001510 | 76 | 325 | 4.0 | 10.0 | 0.00 | 0.01 | 0.00 | 16 | 1008.3 |
| 20260504000017 | 76 | 312 | 4.0 | 12.0 | 0.00 | 0.01 | 0.00 | 16 | 1008.3 |
| 20260503234520 | 76 | 348 | 5.0 | 12.0 | 0.00 | 0.01 | 0.00 | 16 | 1008.5 |
| 20260503233028 | 76 | 352 | 3.0 | 10.0 | 0.00 | 0.01 | 0.00 | 15 | 1008.5 |
| 20260503231514 | 77 | 356 | 8.0 | 15.0 | 0.00 | 0.01 | 0.00 | 15 | 1008.7 |
| 20260503230014 | 76 | 323 | 2.0 | 9.0 | 0.00 | 0.01 | 0.00 | 15 | 1008.8 |